Simultaneous Nadir Overpasses (SNOs) Predictions

Prediction of SNOs between AQUA and GOES-15 Satellite Orbit:

Table of predicted SNOs for the next 14.0 days since TLE Epoch: 1/19/2018
Index Date Time (AQUA) AQUA Lat,Lon GOES-15 Lat,Lon Distance(km) Time Diff (sec)
1 01/21/2018 22:29:10 0.36,-133.38 0.05,-134.79 160.56 25
2 01/22/2018 10:50:26 0.72,-138.54 -0.05,-134.85 419.29 80
3 01/24/2018 10:38:16 0.11,-135.58 -0.05,-134.93 74.75 80
4 01/26/2018 10:26:07 -0.57,-132.64 -0.04,-135.00 269.09 80
5 01/26/2018 22:47:31 -0.58,-137.82 0.04,-134.98 323.70 80
6 01/28/2018 22:35:21 0.04,-134.87 0.03,-135.04 19.28 80
7 01/30/2018 22:23:12 0.73,-131.92 0.03,-135.09 361.16 80
8 01/31/2018 10:44:27 0.40,-137.07 -0.03,-135.14 219.48 80
9 02/02/2018 10:32:17 -0.23,-134.12 -0.02,-135.20 122.44 80




NCC Satellite Simultaneous Nadir Overpasses (SNOs) Prediction Service
